Weather History for PATE - January, 2014

Change the Weather History Date:

Saturday, January 18, 2014

  Actual Average (PAOM) Record (PAOM)
Temperature  
Mean Temperature 19 °F -  
Max Temperature 28 °F 13 °F 38 °F (1963)
Min Temperature 10 °F -3 °F -35 °F (1989)
Degree Days  
Heating Degree Days 46 60  
Month to date heating degree days 1073  
Since 1 July heating degree days 6891  
Cooling Degree Days 0    
Month to date cooling degree days  
Year to date cooling degree days  
Moisture  
Dew Point 20 °F    
Average Humidity 96    
Maximum Humidity 100    
Minimum Humidity 92    
Precipitation  
Precipitation 0.00 in 0.03 in 0.74 in (1922)
Month to date precipitation 0.56  
Year to date precipitation 0.56  
Snow  
Snow 0.00 in 0.30 in 7.10 in (2007)
Month to date snowfall 7.6  
Since 1 July snowfall 39.4  
Snow Depth -    
Sea Level Pressure  
Sea Level Pressure 28.98 in    
Wind  
Wind Speed 12 mph (East)    
Max Wind Speed 26 mph    
Max Gust Speed -    
T = Trace of Precipitation, MM = Missing Value Source: NWS Daily Summary

Daily Weather History Graph

Daily Weather History Graph

Search for Another Location

Airport or City:

Trip Planner

Search our weather history database for the weather conditions in past years. The results will help you decide how hot, cold, wet, or windy it might be!

Date:

Astronomy

Jan. 18, 2014 Rise Set
Actual Time 11:37 AM AKST 4:55 PM AKST
Civil Twilight 10:26 AM AKST 6:05 PM AKST
Nautical Twilight 9:20 AM AKST 7:12 PM AKST
Astronomical Twilight 8:20 AM AKST 8:12 PM AKST
Moon 9:25 PM AKST (1/18) 11:14 AM AKST (1/18)
Length of Visible Light 7h 38m
Length of Day
5h 17m
Waning Gibbous, 94% of the Moon is Illuminated
Jan 18
Waning Gibbous
Jan 23
Last Quarter
Jan 30
New
Feb 6
First Quarter
Feb 14
Full

Hourly Weather History & Observations

Time (AKST) Temp. Windchill Dew Point Humidity Pressure Visibility Wind Dir Wind Speed Gust Speed Precip Events Conditions
12:12 AM 10.4 °F -10.7 °F 10.4 °F 100% 28.83 in - ENE 26.5 mph - N/A   Overcast
12:29 AM 12.2 °F -4.3 °F 10.4 °F 92% 28.84 in - ENE 16.1 mph - N/A   Overcast
12:35 AM 12.2 °F -4.3 °F 10.4 °F 92% 28.84 in - ENE 16.1 mph - N/A   Overcast
12:53 AM 12.2 °F -3.7 °F 10.4 °F 92% 28.84 in - ENE 15.0 mph - N/A   Overcast
12:58 AM 12.0 °F -4.5 °F 10.9 °F 95% 28.87 in - ENE 16.1 mph - N/A   Overcast
1:26 AM 12.2 °F -5.8 °F 12.2 °F 100% 28.82 in - ENE 19.6 mph - N/A   Overcast
1:53 AM 14.0 °F -3.0 °F 12.2 °F 93% 28.81 in - East 18.4 mph - N/A   Overcast
1:58 AM 14.0 °F -3.4 °F 12.9 °F 95% 28.85 in - ENE 19.6 mph - N/A   Overcast
2:12 AM 15.8 °F -0.6 °F 14.0 °F 93% 28.80 in - ENE 18.4 mph - N/A   Overcast
2:19 AM 15.8 °F -1.1 °F 14.0 °F 93% 28.80 in - East 19.6 mph - N/A   Overcast
2:54 AM 15.8 °F 0.3 °F 14.0 °F 93% 28.80 in - East 16.1 mph - N/A   Overcast
2:58 AM 16.0 °F 1.1 °F 14.0 °F 92% 28.83 in - East 15.0 mph - N/A   Overcast
3:12 AM 15.8 °F 0.9 °F 15.8 °F 100% 28.79 in - East 15.0 mph - N/A   Overcast
3:33 AM 15.8 °F 1.4 °F 15.8 °F 100% 28.79 in - ENE 13.8 mph - N/A   Overcast
3:56 AM 17.6 °F 6.4 °F 15.8 °F 93% 28.79 in - ENE 9.2 mph - N/A   Overcast
3:58 AM 17.1 °F 5.8 °F 16.0 °F 96% 28.82 in - East 9.2 mph - N/A   Overcast
4:26 AM 17.6 °F 6.4 °F 17.6 °F 100% 28.79 in - ENE 9.2 mph - N/A   Overcast
4:30 AM 17.6 °F 5.0 °F 17.6 °F 100% 28.78 in - East 11.5 mph - N/A   Overcast
4:58 AM 19.0 °F 6.8 °F 18.0 °F 96% 28.82 in - East 11.5 mph - N/A   Overcast
5:25 AM 19.4 °F 6.6 °F 17.6 °F 93% 28.78 in - East 12.7 mph - N/A   Overcast
5:49 AM 19.4 °F 7.2 °F 19.4 °F 100% 28.78 in - East 11.5 mph - N/A   Overcast
5:58 AM 19.9 °F 7.9 °F 19.0 °F 96% 28.82 in - East 11.5 mph - N/A   Overcast
6:15 AM 21.2 °F 10.1 °F 19.4 °F 93% 28.78 in - East 10.4 mph - N/A   Overcast
6:49 AM 21.2 °F 10.1 °F 21.2 °F 100% 28.78 in - ENE 10.4 mph - N/A   Overcast
6:58 AM 21.9 °F 11.0 °F 21.0 °F 96% 28.82 in - ENE 10.4 mph - N/A   Overcast
7:58 AM 21.9 °F 12.5 °F 21.9 °F 100% 28.82 in - ENE 8.1 mph - N/A   Overcast
8:21 AM 23.0 °F 17.0 °F 21.2 °F 93% 28.79 in - NE 4.6 mph - N/A   Overcast
8:58 AM 24.1 °F 14.4 °F 24.1 °F 100% 28.84 in - ENE 9.2 mph - N/A   Overcast
9:58 AM 27.0 °F 17.3 °F 27.0 °F 100% 28.86 in - East 10.4 mph - N/A   Overcast
10:58 AM 27.0 °F 20.5 °F 27.0 °F 100% 28.90 in - East 5.8 mph - N/A   Overcast
11:41 AM 26.6 °F 19.1 °F 26.6 °F 100% 28.89 in - ESE 6.9 mph - N/A   Overcast
11:58 AM 27.0 °F 20.5 °F 27.0 °F 100% 28.93 in - ESE 5.8 mph - N/A   Overcast
12:02 PM 28.4 °F 21.2 °F 26.6 °F 93% 28.90 in - SE 6.9 mph - N/A   Overcast
12:58 PM 28.0 °F 22.8 °F 27.0 °F 96% 28.97 in - WNW 4.6 mph - N/A   Overcast
1:11 PM 26.6 °F 22.6 °F 26.6 °F 100% 28.94 in - Variable 3.5 mph - N/A   Overcast
1:58 PM 27.0 °F - 27.0 °F 100% 29.00 in - Calm Calm - N/A   Overcast
2:09 PM 28.4 °F - 26.6 °F 93% 28.97 in - Calm Calm - N/A   Overcast
2:29 PM 26.6 °F 22.6 °F 26.6 °F 100% 28.98 in - NNE 3.5 mph - N/A   Overcast
2:38 PM 26.6 °F - 26.6 °F 100% 28.99 in - Calm Calm - N/A   Overcast
2:58 PM 25.0 °F 17.1 °F 25.0 °F 100% 29.03 in - North 6.9 mph - N/A   Overcast
3:04 PM 24.8 °F 16.9 °F 24.8 °F 100% 29.00 in - NNW 6.9 mph - N/A   Overcast
3:58 PM 21.9 °F 14.5 °F 21.9 °F 100% 29.06 in - NNE 5.8 mph - N/A   Overcast
4:15 PM 23.0 °F - 21.2 °F 93% 29.04 in - Calm Calm - N/A   Overcast
4:37 PM 24.8 °F 17.9 °F 23.0 °F 93% 29.04 in - NE 5.8 mph - N/A   Overcast
4:58 PM 24.1 °F 18.2 °F 23.0 °F 96% 29.09 in - East 4.6 mph - N/A   Overcast
5:58 PM 25.0 °F 14.8 °F 25.0 °F 100% 29.13 in - SSE 10.4 mph - N/A   Overcast
6:58 PM 26.1 °F 20.5 °F 25.0 °F 96% 29.15 in - SE 4.6 mph - N/A   Overcast
7:36 PM 24.8 °F 16.1 °F 24.8 °F 100% 29.14 in - SSE 8.1 mph - N/A   Overcast
7:41 PM 26.6 °F 19.1 °F 24.8 °F 93% 29.14 in - SE 6.9 mph - N/A   Overcast
7:45 PM 26.6 °F 20.0 °F 24.8 °F 93% 29.14 in - SSE 5.8 mph - N/A   Overcast
7:56 PM 26.6 °F 22.6 °F 24.8 °F 93% 29.15 in - SE 3.5 mph - N/A   Overcast
7:58 PM 26.1 °F 20.5 °F 25.0 °F 96% 29.19 in - SE 4.6 mph - N/A   Overcast
8:18 PM 24.8 °F 15.3 °F 23.0 °F 93% 29.15 in - East 9.2 mph - N/A   Overcast
8:25 PM 24.8 °F 17.9 °F 23.0 °F 93% 29.16 in - SE 5.8 mph - N/A   Overcast
8:34 PM 24.8 °F 20.5 °F 23.0 °F 93% 29.16 in - ESE 3.5 mph - N/A   Overcast
8:58 PM 23.0 °F 18.4 °F 21.9 °F 96% 29.22 in - North 3.5 mph - N/A   Partly Cloudy
9:44 PM 21.2 °F 13.6 °F 19.4 °F 93% 29.20 in - ENE 5.8 mph - N/A   Mostly Cloudy
9:58 PM 21.0 °F 14.6 °F 19.9 °F 96% 29.24 in - NNE 4.6 mph - N/A   Overcast
10:06 PM 19.4 °F 12.8 °F 19.4 °F 100% 29.21 in - East 4.6 mph - N/A   Overcast
10:21 PM 21.2 °F 13.6 °F 21.2 °F 100% 29.22 in - ESE 5.8 mph - N/A   Overcast
10:36 PM 23.0 °F 18.4 °F 21.2 °F 93% 29.23 in - NE 3.5 mph - N/A   Overcast
10:58 PM 21.9 °F 14.5 °F 21.0 °F 96% 29.27 in - ENE 5.8 mph - N/A   Overcast
11:16 PM 21.2 °F 12.6 °F 21.2 °F 100% 29.24 in - East 6.9 mph - N/A   Overcast
11:27 PM 23.0 °F 13.9 °F 21.2 °F 93% 29.24 in - East 8.1 mph - N/A   Overcast
11:46 PM 21.2 °F 13.6 °F 21.2 °F 100% 29.27 in - ENE 5.8 mph - N/A   Overcast
11:58 PM 21.0 °F 14.6 °F 21.0 °F 100% 29.31 in - NE 4.6 mph - N/A   Overcast